THORAD AGENA D DEB *, 5387

Orbit data source: Space-Track

THORAD AGENA D DEB *, 5387 is space debris in SSO originally from a launch on Wed, 08 Apr 1970 UTC launched from the Air Force Western Test Range (AFWTR). Debris objects in space refer to the collection of defunct objects orbiting the Earth. Examples of debris include non-operational satellites, rocket bodies, and fragments generated from explosions, collisions, or faulty payload assembly.

Loading next visibility...
Identifier
5387, 1970-025KS
Orbit
SSO
Country
Flag of USUS
Related business
Manufacturer
Unknown
Mission
Spacecraft
Bus & Motor
Unknown
Mass
Unknown
Launch date (UTC)
1970-04-08 (56 years ago)
Launch vehicle
Unknown
Launch site
Air Force Western Test Range (AFWTR)
Object type
Payload
Rocket body
Debris
Shape & HBR
Unknown shape, 0.1 m
Radar Cross Section
Medium (>0.1 m² and <1 m²)

Expand to show TLE details & history
Last TLE update: 6 months ago

TLE from 6 months ago
0 THORAD AGENA D DEB *
1  5387U 70025KS  26031.30022792  .00008723  00000-0  41686-1 0  9990
2  5387 101.0378 147.3560 0697747 253.6339 168.5632 12.15815122305919
Epoch: 2026-01-31T07:12Z
TLE epoch observation values (Epoch: 2026-01-31T07:12:19.692Z)
Latitude
61.67151°
Longitude
-112.36616°
Altitude
2,169.013 km
Speed
6.597 km/s
True Right ascension
08h 24m 58s
True Declination
61° 33' 05"
Sunlit
Object was in full shadow at epoch
Visualization orbit readout
Latitude
Unknown
Longitude
Unknown
Altitude
Unknown
Speed
Unknown
Apparent Right ascension
Unknown
Apparent Declination
Unknown
Sunlit
N/A
Visualization observer readout
Local Sidereal Time
10:30:35
Azimuth
Unknown
Elevation
Unknown
Doppler factor
Unknown
Orbital elements
Apogee altitude
2,165.61 km
Perigee altitude
1,051.1 km
Semi-major axis
7,986.492 km
Eccentricity
0.06977
Inclination
101.0378°
RAAN
147.356°
Arg. of periapsis
253.6339°
True anomaly
170.02326°
Mean anomaly
168.5632°
Eccentric anomaly
169.30511°
Mean motion
3.04095 °/min
Orbital period
118.38 mins
BSTAR
0.041686
Loading maneuver chart data...
Computing Atmospheric mass density...

Documentation

Showing up to 5 results
|